SCP
0 0 0 0 0 0 0 0 0 0 0 0 0 0 0 0 0 0 0 0 0 0 0 0 0 0 0 0 0 0 0 0 0 0 0 0 0 0 0 0 0 0 0 0
0 0 0 0 0 0 0 0 0 0 0 0 0 0 0 0 0 0 0 0 0 0 0 0 0 0 0 0 0 0 0 0 0 0 0 0 0 0 0 0 0 0 0 0
0 0 0 0 0 0 0 0 0 0 0 0 0 0 0 0 0 0 0 0 0 0 0 0 0 0 0 0 0 0 0 0 0 0 0 0 0 0 0 0 0 0 0 0
0 0 0 0 0 0 0 0 0 0 0 0 0 0 0 0 0 0 0 0 0 0 0 0 0 0 0 0 0 0 0 0 0 0 0 0 0 0 0 0 0 0 0 0
0 0 0 0 0 0 0 0 0 0 0 0 0 0 0 0 0 0 0 0 0 0 0 0 0 0 0 0 0 0 0 0 0 0 0 0 0 -0 -0 0 0 0 0 0
0 0 0 0 0 0 0 0 0 0 0 0 0 0 0 0 0 0 0 0 0 0 0 0 0 0 0 0 0 0 0 0 0 0 0 0 0 0 0 0 0 0 0 0
0 0 0 0 0 0 0 0 0 0 0 0 0 0 0 0 0 0 0 0 0 0 0 0 0 0 0 0 0 0 0 0 -0 -0 0 0 -0 0 0 0 0 0 0 0
0 0 0 0 0 0 0 0 0 0 0 0 0 0 0 0 0 0 0 0 0 0 0 0 0 0 0 0 0 0 0 -0 -0 -0 0 0 0 0 0 0 0 0 0 0
0 0 0 0 0 0 0 0 0 0 0 0 0 0 0 0 0 0 0 0 0 0 0 0 0 0 0 0 0 -0 -0 0 0 0 0 0 0 0 0 0 0 0 0 0
0 0 0 0 0 0 0 0 0 0 0 0 0 0 0 0 0 0 0 0 0 0 0 0 0 0 0 0 0 0 0 0 0 0 0 0 0 0 0 0 0 0 0 0
0 0 0 0 0 0 0 0 0 0 0 0 0 0 0 0 0 0 0 0 0 0 0 0 0 0 0 0 0 0 0 0 0 0 0 0 0 0 0 0 0 0 0 0
0 0 0 0 0 0 0 0 0 0 0 0 0 0 0 0 0 0 0 0 0 0 0 0 0 0 0 0 0 0 0 0 0 0 0 0 0 0 0 0 0 0 0 0
0 0 0 0 0 0 0 0 0 0 0 0 0 0 0 0 0 0 0 0 0 0 0 0 0 0 0 0 0 0 0 0 0 0 0 0 0 0 0 0 0 0 0 0
0 0 0 0 0 0 0 0 0 0 0 0 0 0 0 0 0 0 0 0 0 0 0 0 0 0 0 0 0 0 0 0 0 0 0 0 0 0 0 0 0 0 0 0
0 0 0 0 0 0 0 0 0 0 0 0 0 0 0 0 0 0 0 0 0 0 0 0 0 0 0 0 0 0 0 0 0 0 0 0 0 0 0 0 0 0 0 0
0 0 0 0 0 0 0 0 0 0 0 0 0 0 0 0 0 0 0 0 0 0 0 0 0 0 0 0 0 0 0 0 0 0 0 0 0 0 0 0 0 0 0 0
0 0 0 0 0 0 0 0 0 0 0 0 0 0 0 0 0 0 0 0 0 0 0 0 0 0 0 0 0 0 0 0 0 0 0 0 0 0 0 0 0 0 0 0
0 0 0 0 0 0 0 0 0 0 0 0 0 0 0 0 0 0 0 0 0 0 0 0 0 0 0 0 0 0 0 0 0 0 0 0 0 0 0 0 0 0 0 0
0 0 0 0 0 0 0 0 0 0 0 0 0 0 0 0 0 0 0 0 0 0 0 0 0 0 0 0 0 0 0 0 0 0 0 0 0 0 0 0 0 0 0 0
0 0 0 0 0 0 0 0 0 0 0 0 0 0 0 0 0 0 0 0 0 0 0 0 0 0 0 0 0 0 0 0 0 0 0 0 0 0 0 0 0 0 0 0
0 0 0 0 0 0 0 0 0 0 0 0 0 0 0 0 0 0 0 0 0 0 0 0 0 0 0 0 0 0 0 0 0 0 0 0 0 0 0 0 0 0 0 0
0 0 0 0 0 0 0 0 0 0 0 0 0 0 0 0 0 0 0 0 0 0 0 0 0 0 0 0 0 0 0 0 0 0 0 0 0 0 0 0 0 0 0 0
0 0 0 0 0 0 0 0 0 0 0 0 0 0 0 0 0 0 0 0 0 0 0 0 0 0 0 0 0 0 0 0 0 0 0 0 0 0 0 0 0 0 0 0
0 0 0 0 0 0 0 0 0 0 0 0 0 0 0 0 0 0 0 0 0 0 0 0 0 0 0 0 0 0 0 0 0 0 0 0 0 0 0 0 0 0 0 0
0 0 0 0 0 0 0 0 0 0 0 0 0 0 0 0 0 0 0 0 0 0 0 0 0 0 0 0 0 0 0 0 0 0 0 0 0 0 0 0 0 0 0 0
0 0 0 0 0 0 0 0 0 0 0 0 0 0 0 0 0 0 0 0 0 0 0 0 0 0 0 0 0 0 0 0 0 0 0 0 0 0 0 0 0 0 0 0
Wind_Speed_500mb
6 7 16 23 18 5 9 9 9 6 6 5 12 13 8 16 27 24 23 27 32 35 35 36 36 35 34 31 31 35 36 37 27 23 21 19 12 10 6 10 16 17 20 20
7 13 17 8 12 10 6 6 10 9 3 7 8 13 7 14 9 15 23 29 32 36 40 46 51 54 57 59 62 61 59 50 43 34 30 24 20 15 10 12 11 15 18 18
15 10 12 13 9 11 9 12 9 12 4 1 10 11 9 6 18 19 20 26 29 35 39 42 48 54 57 61 63 63 62 59 54 51 44 34 27 20 13 7 6 10 11 14
12 10 11 9 11 14 9 14 10 7 6 7 5 9 7 8 8 11 22 25 28 28 36 39 44 48 51 54 52 52 50 47 44 38 35 29 30 26 26 19 16 12 10 10
12 12 12 10 10 13 10 9 11 6 7 6 4 2 12 8 7 10 19 25 28 30 36 39 37 39 41 40 37 36 37 37 36 33 29 27 28 30 26 22 18 19 20 18
8 2 10 12 5 8 17 11 12 9 6 1 10 12 8 8 7 9 24 31 31 32 34 35 35 31 29 28 26 25 28 32 30 27 24 23 23 24 19 20 19 20 22 22
3 7 4 7 12 5 7 11 3 6 3 10 1 4 15 10 6 17 36 47 38 35 34 31 29 24 21 19 19 20 23 25 24 22 20 21 21 20 21 22 23 21 23 26
14 8 19 12 9 13 11 12 11 13 7 6 5 11 11 4 8 20 52 54 44 40 33 27 23 18 13 13 12 13 14 17 17 17 17 18 19 23 24 24 25 28 30 31
12 8 5 4 6 7 8 7 5 12 3 3 8 10 3 3 3 20 45 54 52 45 39 31 22 14 8 5 5 6 7 10 10 11 13 15 18 18 21 22 24 27 29 31
13 4 2 5 8 12 8 12 7 5 3 10 8 9 10 10 14 11 23 47 51 46 41 33 23 13 8 5 4 1 1 2 4 6 8 11 14 17 21 24 27 31 34 36
12 7 3 8 11 18 5 5 8 8 7 9 5 10 11 13 20 26 39 57 53 48 44 37 27 19 15 12 10 9 8 6 2 1 6 11 16 21 25 28 32 35 37 38
14 10 8 13 5 3 4 13 14 9 11 5 2 13 5 6 28 45 51 57 49 46 43 39 34 28 22 20 19 19 17 12 7 8 11 15 19 24 28 33 37 41 42 44
18 3 5 12 3 3 8 9 7 9 7 15 9 13 5 12 20 40 44 49 45 42 41 43 43 42 32 28 29 29 23 16 15 16 19 20 24 29 35 39 42 46 47 49
15 9 14 18 11 11 9 11 11 11 10 10 26 26 6 8 14 24 40 38 34 32 34 44 51 48 40 37 35 32 28 25 24 25 27 29 33 38 41 45 48 51 52 58
6 8 6 8 7 6 6 13 23 19 28 21 24 26 14 19 18 38 42 26 29 31 39 45 50 52 48 41 38 35 32 30 30 33 37 38 39 41 45 49 53 55 58 65
4 7 7 3 5 7 7 13 12 25 4 6 6 25 13 15 24 23 38 34 38 38 31 34 43 48 46 42 39 38 35 33 37 42 45 45 40 44 52 55 58 58 65 70
13 14 8 7 4 6 17 16 27 11 12 16 22 27 8 10 25 39 39 36 35 30 29 34 38 44 46 40 35 39 39 42 47 51 52 47 45 50 56 61 61 64 70 72
14 11 5 7 4 11 5 4 6 24 13 15 1 10 16 12 15 17 23 23 22 25 30 35 37 39 37 33 34 33 41 50 57 58 51 49 51 57 61 64 62 67 70 72
2 12 7 10 8 14 12 13 16 16 19 19 20 14 13 11 8 15 16 19 22 25 28 29 26 29 29 29 35 44 50 54 57 56 54 55 56 59 64 64 64 67 70 73
6 9 13 8 11 18 4 5 17 13 13 23 35 14 20 20 4 9 15 19 24 31 33 35 31 28 29 35 43 52 53 58 60 60 60 60 59 61 62 62 66 68 70 72
6 3 18 10 11 13 11 14 21 12 13 15 32 30 34 11 20 19 24 29 30 32 37 38 35 36 44 40 44 48 52 59 62 63 62 60 59 61 59 65 67 68 68 70
14 16 8 5 7 19 28 13 17 10 12 24 35 39 43 35 22 23 28 36 33 30 38 44 43 47 50 49 51 53 58 61 64 62 59 57 58 61 66 66 66 65 65 68
5 12 12 19 12 2 62 13 42 17 13 30 36 40 48 39 27 27 33 38 38 36 41 49 55 57 58 58 58 58 63 65 63 60 57 57 62 58 59 63 63 62 59 62
9 11 6 7 8 12 45 38 20 24 32 34 39 41 42 40 32 42 41 42 49 43 45 45 53 59 59 59 58 61 66 64 60 59 60 62 63 59 58 60 58 58 55 58
9 18 12 3 2 7 26 40 43 41 36 36 38 43 41 42 52 41 46 48 47 52 43 46 53 57 56 53 59 65 62 59 60 62 62 62 60 57 60 58 55 54 51 54
17 11 10 7 24 21 20 35 32 31 32 29 35 43 46 46 51 48 50 44 43 41 45 50 52 49 50 55 58 57 57 58 60 62 62 58 56 56 57 57 56 44 48 49
Wind_Direction_500mb
149 127 209 197 200 162 136 173 213 261 200 218 242 260 1 54 83 89 91 89 85 79 77 78 79 77 78 80 78 78 81 79 82 84 83 83 75 72 34 343 330 310 306 298
57 229 230 159 163 178 157 171 246 278 283 184 306 280 67 48 65 108 117 109 105 101 96 92 89 88 83 79 77 74 73 73 73 71 67 65 58 60 48 33 356 336 333 328
178 213 142 167 165 158 202 185 193 215 336 335 332 290 189 68 112 116 123 124 119 109 101 96 92 88 86 80 75 71 68 66 65 66 67 66 64 65 68 68 13 359 336 313
234 250 176 176 198 148 214 206 162 169 128 228 30 283 288 185 154 147 146 143 128 115 104 99 94 90 83 78 73 66 61 64 67 69 70 70 68 67 70 62 51 41 22 4
234 180 186 189 199 159 216 117 143 127 116 67 293 245 258 116 221 215 185 158 144 137 124 112 99 91 85 81 71 59 54 61 64 57 56 57 62 69 73 69 61 52 45 42
231 217 180 201 101 160 144 81 46 45 92 291 226 178 269 186 213 168 185 178 163 153 137 122 115 108 99 88 76 70 64 61 56 51 60 60 68 74 68 61 46 38 31 26
158 210 194 162 93 57 113 106 326 340 357 231 107 164 243 166 176 192 182 182 175 166 152 137 129 123 105 91 79 65 56 54 50 45 51 55 52 46 36 27 21 16 11 10
169 200 171 185 192 169 179 165 162 216 205 260 315 232 271 306 301 219 190 177 176 175 169 158 146 138 121 103 86 61 53 50 46 41 41 48 44 29 17 12 8 5 3 2
160 254 68 74 127 129 187 185 155 103 55 30 233 274 260 82 47 149 167 176 183 181 184 179 172 164 147 113 91 69 48 40 53 51 48 37 26 18 10 5 360 357 354 351
204 99 49 130 90 41 139 157 84 4 202 261 271 272 239 221 203 173 177 194 194 189 191 195 194 197 202 205 222 227 356 30 61 48 28 11 1 356 354 349 344 345 342 339
153 112 243 123 202 172 137 175 68 123 144 183 278 248 208 212 177 187 203 203 201 200 202 204 208 220 220 229 235 232 217 219 199 325 332 341 342 344 341 337 336 336 336 332
192 133 162 195 132 98 169 183 157 162 216 254 195 257 24 252 177 186 204 208 208 211 213 218 226 230 231 231 232 225 217 211 225 276 303 317 322 323 325 325 328 329 327 327
179 186 79 354 43 29 205 194 160 103 80 193 167 263 7 88 163 203 210 209 210 214 218 225 232 236 235 236 229 219 217 227 251 272 286 298 308 314 318 320 320 321 320 321
142 143 165 205 184 138 181 201 188 160 183 178 232 257 177 199 198 202 212 209 211 217 230 239 240 240 238 234 226 220 225 236 252 268 279 292 301 306 309 313 315 316 317 319
132 185 104 47 71 94 208 197 187 191 220 210 247 232 184 206 206 209 201 209 213 244 250 255 248 244 235 229 223 223 230 244 261 275 280 284 291 300 307 310 312 312 314 315
21 160 120 34 358 40 270 236 188 220 180 223 229 260 173 201 224 215 221 241 258 263 255 255 250 240 232 230 230 231 238 251 264 268 270 271 279 297 303 306 308 308 312 314
153 137 122 230 61 43 281 190 199 180 197 175 214 238 143 197 214 229 243 240 247 249 251 247 247 241 233 232 236 242 252 262 269 269 267 268 276 288 295 302 303 307 311 312
135 109 67 138 54 228 227 95 109 212 241 215 308 224 203 173 198 218 223 235 246 255 249 244 237 230 231 236 245 251 261 268 272 270 265 268 275 282 290 296 298 304 307 311
133 129 129 161 198 314 252 184 164 169 244 197 210 227 172 175 196 238 230 261 270 262 255 238 231 231 232 241 259 265 267 269 272 264 261 263 270 279 288 290 296 304 309 313
43 43 181 140 184 220 337 158 144 121 278 218 202 193 161 152 156 249 311 284 268 259 243 236 219 228 250 271 266 264 269 270 266 259 258 263 271 280 285 291 299 306 310 312
93 48 199 185 220 276 205 177 150 121 241 179 199 206 172 181 209 287 281 268 265 257 248 230 239 262 279 271 265 265 268 268 262 257 260 267 277 283 288 295 299 305 309 313
157 163 193 121 194 259 168 125 167 189 166 177 182 187 198 212 238 261 275 268 259 249 243 244 254 274 275 267 267 266 265 265 260 260 266 274 280 287 293 292 299 303 309 312
222 185 180 190 203 69 172 180 200 193 189 201 220 226 214 220 240 287 290 279 253 256 254 255 265 273 274 264 263 265 265 262 263 266 271 277 284 289 289 294 298 302 309 311
239 162 181 117 193 200 198 207 195 217 242 259 262 260 235 234 273 294 287 275 254 264 267 269 272 273 271 264 262 265 262 262 267 271 276 282 288 286 287 292 298 303 308 309
197 133 147 274 261 172 233 225 235 247 261 268 270 262 259 259 287 283 289 272 270 269 268 274 277 277 269 261 261 260 261 267 271 274 279 284 285 285 288 294 300 303 307 309
179 150 166 204 200 190 224 258 248 233 246 259 266 269 267 280 285 282 287 277 281 264 272 278 278 267 260 260 257 260 265 269 272 277 284 285 286 288 292 295 298 300 306 307
Wind_Speed_850mb
6 7 16 23 18 5 9 9 9 6 6 5 12 13 8 16 27 24 23 27 32 35 35 36 36 35 34 31 31 35 36 37 27 23 21 19 12 10 6 10 16 17 20 20
7 13 17 8 12 10 6 6 10 9 3 7 8 13 7 14 9 15 23 29 32 36 40 46 51 54 57 59 62 61 59 50 43 34 30 24 20 15 10 12 11 15 18 18
15 10 12 13 9 11 9 12 9 12 4 1 10 11 9 6 18 19 20 26 29 35 39 42 48 54 57 61 63 63 62 59 54 51 44 34 27 20 13 7 6 10 11 14
12 10 11 9 11 14 9 14 10 7 6 7 5 9 7 8 8 11 22 25 28 28 36 39 44 48 51 54 52 52 50 47 44 38 35 29 30 26 26 19 16 12 10 10
12 12 12 10 10 13 10 9 11 6 7 6 4 2 12 8 7 10 19 25 28 30 36 39 37 39 41 40 37 36 37 37 36 33 29 27 28 30 26 22 18 19 20 18
8 2 10 12 5 8 17 11 12 9 6 1 10 12 8 8 7 9 24 31 31 32 34 35 35 31 29 28 26 25 28 32 30 27 24 23 23 24 19 20 19 20 22 22
3 7 4 7 12 5 7 11 3 6 3 10 1 4 15 10 6 17 36 47 38 35 34 31 29 24 21 19 19 20 23 25 24 22 20 21 21 20 21 22 23 21 23 26
14 8 19 12 9 13 11 12 11 13 7 6 5 11 11 4 8 20 52 54 44 40 33 27 23 18 13 13 12 13 14 17 17 17 17 18 19 23 24 24 25 28 30 31
12 8 5 4 6 7 8 7 5 12 3 3 8 10 3 3 3 20 45 54 52 45 39 31 22 14 8 5 5 6 7 10 10 11 13 15 18 18 21 22 24 27 29 31
13 4 2 5 8 12 8 12 7 5 3 10 8 9 10 10 14 11 23 47 51 46 41 33 23 13 8 5 4 1 1 2 4 6 8 11 14 17 21 24 27 31 34 36
12 7 3 8 11 18 5 5 8 8 7 9 5 10 11 13 20 26 39 57 53 48 44 37 27 19 15 12 10 9 8 6 2 1 6 11 16 21 25 28 32 35 37 38
14 10 8 13 5 3 4 13 14 9 11 5 2 13 5 6 28 45 51 57 49 46 43 39 34 28 22 20 19 19 17 12 7 8 11 15 19 24 28 33 37 41 42 44
18 3 5 12 3 3 8 9 7 9 7 15 9 13 5 12 20 40 44 49 45 42 41 43 43 42 32 28 29 29 23 16 15 16 19 20 24 29 35 39 42 46 47 49
15 9 14 18 11 11 9 11 11 11 10 10 26 26 6 8 14 24 40 38 34 32 34 44 51 48 40 37 35 32 28 25 24 25 27 29 33 38 41 45 48 51 52 58
6 8 6 8 7 6 6 13 23 19 28 21 24 26 14 19 18 38 42 26 29 31 39 45 50 52 48 41 38 35 32 30 30 33 37 38 39 41 45 49 53 55 58 65
4 7 7 3 5 7 7 13 12 25 4 6 6 25 13 15 24 23 38 34 38 38 31 34 43 48 46 42 39 38 35 33 37 42 45 45 40 44 52 55 58 58 65 70
13 14 8 7 4 6 17 16 27 11 12 16 22 27 8 10 25 39 39 36 35 30 29 34 38 44 46 40 35 39 39 42 47 51 52 47 45 50 56 61 61 64 70 72
14 11 5 7 4 11 5 4 6 24 13 15 1 10 16 12 15 17 23 23 22 25 30 35 37 39 37 33 34 33 41 50 57 58 51 49 51 57 61 64 62 67 70 72
2 12 7 10 8 14 12 13 16 16 19 19 20 14 13 11 8 15 16 19 22 25 28 29 26 29 29 29 35 44 50 54 57 56 54 55 56 59 64 64 64 67 70 73
6 9 13 8 11 18 4 5 17 13 13 23 35 14 20 20 4 9 15 19 24 31 33 35 31 28 29 35 43 52 53 58 60 60 60 60 59 61 62 62 66 68 70 72
6 3 18 10 11 13 11 14 21 12 13 15 32 30 34 11 20 19 24 29 30 32 37 38 35 36 44 40 44 48 52 59 62 63 62 60 59 61 59 65 67 68 68 70
14 16 8 5 7 19 28 13 17 10 12 24 35 39 43 35 22 23 28 36 33 30 38 44 43 47 50 49 51 53 58 61 64 62 59 57 58 61 66 66 66 65 65 68
5 12 12 19 12 2 62 13 42 17 13 30 36 40 48 39 27 27 33 38 38 36 41 49 55 57 58 58 58 58 63 65 63 60 57 57 62 58 59 63 63 62 59 62
9 11 6 7 8 12 45 38 20 24 32 34 39 41 42 40 32 42 41 42 49 43 45 45 53 59 59 59 58 61 66 64 60 59 60 62 63 59 58 60 58 58 55 58
9 18 12 3 2 7 26 40 43 41 36 36 38 43 41 42 52 41 46 48 47 52 43 46 53 57 56 53 59 65 62 59 60 62 62 62 60 57 60 58 55 54 51 54
17 11 10 7 24 21 20 35 32 31 32 29 35 43 46 46 51 48 50 44 43 41 45 50 52 49 50 55 58 57 57 58 60 62 62 58 56 56 57 57 56 44 48 49
Wind_Direction_850mb
149 127 209 197 200 162 136 173 213 261 200 218 242 260 1 54 83 89 91 89 85 79 77 78 79 77 78 80 78 78 81 79 82 84 83 83 75 72 34 343 330 310 306 298
57 229 230 159 163 178 157 171 246 278 283 184 306 280 67 48 65 108 117 109 105 101 96 92 89 88 83 79 77 74 73 73 73 71 67 65 58 60 48 33 356 336 333 328
178 213 142 167 165 158 202 185 193 215 336 335 332 290 189 68 112 116 123 124 119 109 101 96 92 88 86 80 75 71 68 66 65 66 67 66 64 65 68 68 13 359 336 313
234 250 176 176 198 148 214 206 162 169 128 228 30 283 288 185 154 147 146 143 128 115 104 99 94 90 83 78 73 66 61 64 67 69 70 70 68 67 70 62 51 41 22 4
234 180 186 189 199 159 216 117 143 127 116 67 293 245 258 116 221 215 185 158 144 137 124 112 99 91 85 81 71 59 54 61 64 57 56 57 62 69 73 69 61 52 45 42
231 217 180 201 101 160 144 81 46 45 92 291 226 178 269 186 213 168 185 178 163 153 137 122 115 108 99 88 76 70 64 61 56 51 60 60 68 74 68 61 46 38 31 26
158 210 194 162 93 57 113 106 326 340 357 231 107 164 243 166 176 192 182 182 175 166 152 137 129 123 105 91 79 65 56 54 50 45 51 55 52 46 36 27 21 16 11 10
169 200 171 185 192 169 179 165 162 216 205 260 315 232 271 306 301 219 190 177 176 175 169 158 146 138 121 103 86 61 53 50 46 41 41 48 44 29 17 12 8 5 3 2
160 254 68 74 127 129 187 185 155 103 55 30 233 274 260 82 47 149 167 176 183 181 184 179 172 164 147 113 91 69 48 40 53 51 48 37 26 18 10 5 360 357 354 351
204 99 49 130 90 41 139 157 84 4 202 261 271 272 239 221 203 173 177 194 194 189 191 195 194 197 202 205 222 227 356 30 61 48 28 11 1 356 354 349 344 345 342 339
153 112 243 123 202 172 137 175 68 123 144 183 278 248 208 212 177 187 203 203 201 200 202 204 208 220 220 229 235 232 217 219 199 325 332 341 342 344 341 337 336 336 336 332
192 133 162 195 132 98 169 183 157 162 216 254 195 257 24 252 177 186 204 208 208 211 213 218 226 230 231 231 232 225 217 211 225 276 303 317 322 323 325 325 328 329 327 327
179 186 79 354 43 29 205 194 160 103 80 193 167 263 7 88 163 203 210 209 210 214 218 225 232 236 235 236 229 219 217 227 251 272 286 298 308 314 318 320 320 321 320 321
142 143 165 205 184 138 181 201 188 160 183 178 232 257 177 199 198 202 212 209 211 217 230 239 240 240 238 234 226 220 225 236 252 268 279 292 301 306 309 313 315 316 317 319
132 185 104 47 71 94 208 197 187 191 220 210 247 232 184 206 206 209 201 209 213 244 250 255 248 244 235 229 223 223 230 244 261 275 280 284 291 300 307 310 312 312 314 315
21 160 120 34 358 40 270 236 188 220 180 223 229 260 173 201 224 215 221 241 258 263 255 255 250 240 232 230 230 231 238 251 264 268 270 271 279 297 303 306 308 308 312 314
153 137 122 230 61 43 281 190 199 180 197 175 214 238 143 197 214 229 243 240 247 249 251 247 247 241 233 232 236 242 252 262 269 269 267 268 276 288 295 302 303 307 311 312
135 109 67 138 54 228 227 95 109 212 241 215 308 224 203 173 198 218 223 235 246 255 249 244 237 230 231 236 245 251 261 268 272 270 265 268 275 282 290 296 298 304 307 311
133 129 129 161 198 314 252 184 164 169 244 197 210 227 172 175 196 238 230 261 270 262 255 238 231 231 232 241 259 265 267 269 272 264 261 263 270 279 288 290 296 304 309 313
43 43 181 140 184 220 337 158 144 121 278 218 202 193 161 152 156 249 311 284 268 259 243 236 219 228 250 271 266 264 269 270 266 259 258 263 271 280 285 291 299 306 310 312
93 48 199 185 220 276 205 177 150 121 241 179 199 206 172 181 209 287 281 268 265 257 248 230 239 262 279 271 265 265 268 268 262 257 260 267 277 283 288 295 299 305 309 313
157 163 193 121 194 259 168 125 167 189 166 177 182 187 198 212 238 261 275 268 259 249 243 244 254 274 275 267 267 266 265 265 260 260 266 274 280 287 293 292 299 303 309 312
222 185 180 190 203 69 172 180 200 193 189 201 220 226 214 220 240 287 290 279 253 256 254 255 265 273 274 264 263 265 265 262 263 266 271 277 284 289 289 294 298 302 309 311
239 162 181 117 193 200 198 207 195 217 242 259 262 260 235 234 273 294 287 275 254 264 267 269 272 273 271 264 262 265 262 262 267 271 276 282 288 286 287 292 298 303 308 309
197 133 147 274 261 172 233 225 235 247 261 268 270 262 259 259 287 283 289 272 270 269 268 274 277 277 269 261 261 260 261 267 271 274 279 284 285 285 288 294 300 303 307 309
179 150 166 204 200 190 224 258 248 233 246 259 266 269 267 280 285 282 287 277 281 264 272 278 278 267 260 260 257 260 265 269 272 277 284 285 286 288 292 295 298 300 306 307